Flag for Germany Weather past 2 weeks in Emsdetten, North Rhine-Westphalia, Germany

Now
43 °F

Passing clouds.


Feels Like: 39 °F
Forecast: 38 / 46 °F
Wind: 7 mph from Southeast

Location: Muenster / Osnabrueck

Current Time: Feb 27, 2015 at 12:51:11 AM

Latest Report: Feb 27, 2015 at 12:20 AM


Visibility: 4 mi

Pressure: 29.77 "Hg

Humidity: 100%

Dew point: 43 °F

Location of EmsdettenLocation

Historic Weather in Emsdetten — Graph

°F

Emsdetten temperature yesterday

Maximum temperature yesterday: 48 °F (at 12:50 PM)
Minimum temperature yesterday: 37 °F (at 7:50 AM)
Average temperature yesterday: 44 °F

Past Weeks' High & Low Weather Summary

 TemperatureHumidityPressure
High52 °F (Feb 14, 2:50 PM)100% (Feb 11, 11:20 PM)30.74 "Hg (Feb 11, 11:20 PM)
Low25 °F (Feb 12, 3:20 AM)61% (Feb 16, 5:20 PM)29.30 "Hg (Feb 21, 6:20 AM)
Average37 °F87%29.97 "Hg
* Reported Feb 11 11:20 PM — Feb 26 11:20 PM, Emsdetten, Weather by CustomWeather, © 2015

Note: Actual official high and low records may vary slightly from our data, if they occured in-between our weather recording intervals... More about our weather records

Advertising

Emsdetten weather history for previous 24 hours

 ConditionsComfort  
Time TempWeatherWind HumidityBarometerVisibility
11:20 PM
Thu, Feb 26
43 °FDrizzle. Fog.7 mph100%29.80 "Hg3 mi
10:50 PM43 °FLight rain. Passing clouds.8 mph100%29.80 "Hg5 mi
10:20 PM43 °FLight rain. Passing clouds.9 mph93%29.80 "HgN/A
9:50 PM43 °FLight rain. Partly cloudy.9 mph93%29.83 "HgN/A
9:20 PM45 °FLight rain. Passing clouds.10 mph81%29.83 "HgN/A
8:50 PM46 °FPassing clouds.10 mph71%29.83 "HgN/A
8:20 PM46 °FPassing clouds.10 mph71%29.86 "HgN/A
7:50 PM46 °FPassing clouds.9 mph71%29.86 "HgN/A
7:20 PM46 °FLight rain. Passing clouds.9 mph71%29.86 "HgN/A
6:50 PM46 °FPassing clouds.12 mph71%29.86 "HgN/A
6:20 PM48 °FPassing clouds.10 mph66%29.89 "HgN/A
5:50 PM48 °FPartly sunny.9 mph66%29.89 "HgN/A
5:20 PM48 °FSunny.10 mph66%29.89 "Hg10 mi
4:50 PM48 °FSunny.10 mph66%29.89 "Hg10 mi
4:20 PM48 °FBroken clouds.14 mph66%29.92 "HgN/A
3:50 PM48 °FBroken clouds.13 mph66%29.92 "HgN/A
3:20 PM48 °FBroken clouds.14 mph71%29.95 "HgN/A
2:50 PM48 °FPartly sunny.12 mph71%29.95 "HgN/A
2:20 PM48 °FBroken clouds.13 mph71%29.98 "HgN/A
1:50 PM48 °FBroken clouds.14 mph71%29.98 "HgN/A
1:20 PM48 °FPartly sunny.14 mph71%30.01 "HgN/A
12:50 PM48 °FBroken clouds.12 mph71%30.01 "HgN/A
12:20 PM46 °FScattered clouds.13 mph71%30.04 "HgN/A
11:50 AM46 °FScattered clouds.9 mph76%30.04 "HgN/A
11:20 AM45 °FPartly sunny.9 mph76%30.04 "HgN/A
10:50 AM45 °FPartly sunny.8 mph76%30.07 "HgN/A
10:20 AM43 °FPartly sunny.7 mph81%30.07 "HgN/A
9:50 AM41 °FPartly sunny.8 mph87%30.07 "HgN/A
9:20 AM41 °FSunny.7 mph87%30.07 "Hg10 mi
8:50 AM39 °FScattered clouds.7 mph93%30.09 "Hg5 mi
8:20 AM37 °FScattered clouds.5 mph93%30.09 "Hg4 mi
7:50 AM37 °FPartly sunny.6 mph93%30.09 "Hg4 mi
6:50 AM39 °FPassing clouds.6 mph93%30.09 "Hg4 mi
6:20 AM39 °FPassing clouds.3 mph93%30.09 "Hg4 mi
5:50 AM39 °FPassing clouds.5 mph93%30.09 "Hg4 mi
4:50 AM39 °FPassing clouds.2 mph100%30.09 "Hg4 mi
4:20 AM41 °FPassing clouds.3 mph93%30.09 "Hg4 mi
3:50 AM41 °FPassing clouds.3 mph93%30.09 "Hg4 mi
3:20 AM39 °FPassing clouds.3 mph100%30.09 "Hg4 mi
2:50 AM41 °FPassing clouds.5 mph93%30.09 "Hg4 mi
2:20 AM41 °FPartly cloudy.5 mph93%30.09 "Hg4 mi
1:50 AM41 °FPassing clouds.3 mph93%30.09 "Hg4 mi
1:20 AM41 °FPassing clouds.3 mph93%30.09 "Hg4 mi
12:50 AM41 °FPartly cloudy.3 mph93%30.09 "Hg4 mi
12:20 AM41 °FPassing clouds.5 mph93%30.09 "Hg5 mi
Weather by CustomWeather, © 2015

See weather overviewHow to use our weather pages